www.pogodaiklimat.ru

Погода и климат >> Архив погоды >> Венгрия >> Veszprem


ПОГОДА в Veszprem

  • Прогноз погоды в Veszprem
  • Монитор погоды в Veszprem
  • Климат города

АРХИВ ПОГОДЫ в Veszprem

Время (UTC), дата Ветер
(напр.,м/с)
 
Видим.   Явления Облачность Т
(С)
Тd
(С)
f
(%)
Тe
(С)
Тes
(С)
Комфортность P
(гПа)
Po
(гПа)
Тmin
(С)
Tmax
(С)
R
(мм)
R24
(мм)
S
(см)
02 11.10 штиль 0 н/о н/о +11.3 +9.9 91 +11 +11 1025.3 991.2
01 11.10 С 1 н/о н/о +12.0 +9.4 84 +12 +12 1025.5 991.5
03 11.10 С 1 н/о н/о +11.0 +9.3 89 +11 +11 1025.1 991.0
04 11.10 штиль 0 н/о н/о +9.4 +7.8 90 +9 +9 1025.3 991.0
05 11.10 штиль 0 н/о н/о +10.4 +9.2 92 +10 +10 1025.1 990.9
06 11.10 штиль 0 н/о н/о +8.5 +7.1 91 +8 +8 1025.6 991.2 +8.5
08 11.10 СВ 2 н/о н/о +14.9 +10.7 76 +15 +15 1025.5 991.8
07 11.10 СЗ 1 н/о н/о +12.2 +10.3 88 +12 +12 1025.5 991.5
09 11.10 СВ 2 н/о н/о +16.3 +11.2 72 +16 +16 1025.4 991.9
10 11.10 СВ 2 н/о н/о +18.1 +11.9 67 +19 +19 1025.1 991.8
11 11.10 В 2 н/о н/о +19.9 +12.2 61 +22 +22 комфорт 1024.4 991.3
12 11.10 В 2 н/о н/о +21.3 +12.4 57 +24 +24 комфорт 1023.8 990.9
14 11.10 ЮВ 2 н/о н/о +22.1 +10.9 49 +24 +24 комфорт 1023.2 990.4
13 11.10 ЮВ 1 н/о н/о +22.0 +12.0 53 +24 +24 комфорт 1023.5 990.7
15 11.10 ЮВ 1 н/о н/о +21.9 +11.0 50 +24 +24 комфорт 1022.9 990.1
16 11.10 ЮВ 1 н/о н/о +19.7 +11.2 58 +22 +22 комфорт 1023.1 990.0
17 11.10 ЮВ 1 н/о н/о +17.5 +10.4 63 +19 +19 1023.7 990.4
18 11.10 ЮВ 1 н/о н/о +14.6 +9.4 71 +15 +15 1024.4 990.7 +22.3
20 11.10 штиль 0 н/о н/о +12.7 +9.9 83 +12 +12 1025.2 991.3
19 11.10 штиль 0 н/о н/о +13.3 +9.2 76 +13 +13 1024.7 990.9
21 11.10 Ю 1 н/о н/о +13.2 +9.6 79 +13 +13 1025.6 991.7
22 11.10 Ю 2 н/о н/о +14.5 +9.1 70 +14 +14 1025.6 991.9
23 11.10 Ю 1 н/о н/о +12.8 +8.7 76 +13 +13 1025.9 992.0
00 12.10 штиль 0 н/о н/о +10.7 +8.3 85 +10 +10 1026.3 992.1
02 12.10 н/о н/о +10.0 +8.9 93 1026.5 992.2
01 12.10 штиль 0 н/о н/о +9.3 +8.1 92 +8 +8 1026.4 992.0
03 12.10 С 1 н/о н/о +8.8 +8.2 96 +8 +8 1026.7 992.3
04 12.10 штиль 0 н/о н/о +8.3 +7.9 97 +7 +7 1027.3 992.8
05 12.10 С 1 н/о н/о +8.2 +7.8 97 +7 +7 1027.4 992.9
06 12.10 СВ 1 н/о н/о +7.6 +7.0 96 +7 +7 1028.2 993.6 +6.8
08 12.10 В 1 н/о н/о +13.4 +9.6 78 +14 +14 1028.9 994.9
07 12.10 В 1 н/о н/о +11.0 +9.1 88 +11 +11 1028.5 994.3
09 12.10 ЮВ 1 н/о н/о +15.6 +10.2 70 +16 +16 1028.9 995.2
10 12.10 ЮВ 2 н/о н/о +16.9 +9.8 63 +17 +17 1029.0 995.4
11 12.10 ЮВ 2 н/о н/о +18.4 +10.0 58 +19 +19 1028.5 995.1
12 12.10 ЮВ 2 н/о н/о +19.7 +9.9 53 +21 +21 комфорт 1027.9 994.7
14 12.10 ЮВ 2 н/о н/о +20.7 +9.3 48 +23 +23 комфорт 1027.5 994.4
13 12.10 ЮВ 2 н/о н/о +20.2 +9.2 49 +22 +22 комфорт 1027.7 994.5
15 12.10 ЮВ 1 н/о н/о +20.6 +9.2 48 +23 +23 комфорт 1027.3 994.2
16 12.10 штиль 0 н/о н/о +18.7 +9.8 56 +19 +19 1027.5 994.2
17 12.10 ЮВ 1 н/о н/о +14.2 +9.2 72 +15 +15 1028.3 994.4
18 12.10 В 1 н/о н/о +15.1 +8.3 64 +16 +16 1028.5 994.7 +20.9
20 12.10 штиль 0 н/о н/о +12.0 +8.1 77 +12 +12 1029.6 995.4
19 12.10 штиль 0 н/о н/о +12.2 +7.3 72 +12 +12 1029.2 995.1
21 12.10 штиль 0 н/о н/о +11.9 +8.7 81 +11 +11 1029.8 995.6
22 12.10 штиль 0 н/о н/о +10.0 +7.4 84 +9 +9 1029.8 995.4
23 12.10 штиль 0 н/о н/о +10.8 +8.0 83 +10 +10 1029.6 995.3
00 13.10 С 1 н/о н/о +10.8 +8.6 86 +10 +10 1029.6 995.3
02 13.10 штиль 0 н/о н/о +11.2 +7.7 79 +11 +11 1029.5 995.3
01 13.10 С 1 н/о н/о +11.6 +7.9 78 +12 +12 1029.5 995.3
03 13.10 штиль 0 н/о н/о +7.8 +5.9 88 +7 +7 1030.0 995.3
04 13.10 штиль 0 н/о н/о +8.0 +6.8 92 +7 +7 1030.0 995.4
05 13.10 штиль 0 н/о н/о +7.7 +6.8 94 +7 +7 1030.0 995.3
06 13.10 С 1 н/о н/о +9.6 +8.0 90 +9 +9 1030.0 995.5 +7.2
08 13.10 СВ 1 н/о н/о +14.7 +10.7 77 +15 +15 1030.0 996.1
07 13.10 штиль 0 н/о н/о +11.1 +9.0 87 +10 +10 1030.1 995.8
09 13.10 СВ 1 н/о н/о +16.3 +10.6 69 +17 +17 1029.8 996.1
10 13.10 В 1 н/о н/о +18.4 +10.5 60 +20 +20 1029.5 996.1
11 13.10 В 2 н/о н/о +19.7 +10.7 56 +22 +22 комфорт 1029.1 995.8
12 13.10 ЮВ 2 н/о н/о +20.4 +9.6 50 +22 +22 комфорт 1028.5 995.3
14 13.10 ЮВ 2 н/о н/о +21.2 +7.1 40 +22 +22 комфорт 1027.2 994.2
13 13.10 ЮВ 2 н/о н/о +20.9 +7.9 43 +23 +23 комфорт 1027.8 994.7
15 13.10 ЮВ 1 н/о н/о +20.7 +6.6 40 +23 +23 комфорт 1026.9 993.8
16 13.10 штиль 0 н/о н/о +18.6 +7.1 47 +19 +19 1026.9 993.6
17 13.10 штиль 0 н/о н/о +14.4 +7.9 65 +14 +14 1027.5 993.7
18 13.10 штиль 0 н/о н/о +12.8 +7.9 72 +12 +12 1027.6 993.6 +21.3
20 13.10 С 1 н/о н/о +13.1 +7.8 70 +13 +13 1027.4 993.4
19 13.10 штиль 0 н/о н/о +12.4 +8.1 75 +12 +12 1027.5 993.5
21 13.10 штиль 0 н/о н/о +11.5 +7.2 75 +11 +11 1027.3 993.2
22 13.10 штиль 0 н/о н/о +10.1 +6.8 80 +9 +9 1027.2 992.9
23 13.10 С 1 н/о н/о +11.6 +8.8 83 +11 +11 1027.1 993.0
00 14.10 штиль 0 н/о н/о +11.3 +8.2 81 +11 +11 1027.1 992.9
02 14.10 штиль 0 н/о н/о +8.5 +7.0 90 +8 +8 1027.0 992.5
01 14.10 С 1 н/о н/о +10.9 +9.0 88 +11 +11 1027.0 992.8
03 14.10 штиль 0 н/о н/о +8.5 +7.0 90 +8 +8 1026.9 992.4
04 14.10 штиль 0 н/о н/о +8.4 +6.7 89 +8 +8 1026.8 992.3
05 14.10 штиль 0 н/о н/о +8.2 +7.3 94 +7 +7 1026.5 992.0
06 14.10 В 1 н/о н/о +8.4 +7.6 95 +8 +8 1026.5 992.0 +6.2
08 14.10 В 1 н/о н/о +13.7 +8.3 70 +14 +14 1026.0 992.2
07 14.10 СЗ 1 н/о н/о +9.4 +8.3 93 +9 +9 1026.6 992.2
09 14.10 ЮВ 2 н/о н/о +16.0 +6.4 53 +16 +16 1025.7 992.1
10 14.10 ЮВ 2 н/о н/о +16.9 +4.6 44 +17 +17 1025.6 992.1
11 14.10 Ю 4
{9}
н/о н/о +18.8 +3.0 35 +19 +19 1024.8 991.6
12 14.10 ЮВ 3
{8}
н/о н/о +20.0 +4.1 35 +21 +21 комфорт 1024.1 991.0
14 14.10 ЮВ 3 н/о н/о +20.4 +5.2 37 +21 +21 комфорт 1023.0 990.0
13 14.10 ЮВ 3
{7}
н/о н/о +20.5 +4.1 34 +21 +21 комфорт 1023.5 990.5
15 14.10 ЮВ 2
{7}
н/о н/о +19.7 +5.7 40 +21 +21 комфорт 1022.8 989.7
16 14.10 ЮВ 2 н/о н/о +18.1 +5.7 44 +19 +19 1022.7 989.5
17 14.10 ЮВ 2 н/о н/о +16.2 +5.2 48 +16 +16 1023.2 989.7
18 14.10 ЮВ 2 н/о н/о +15.6 +4.3 47 +16 +16 1023.4 989.9 +20.7
20 14.10 ЮВ 1 н/о н/о +13.4 +5.1 57 +14 +14 1023.9 990.1
19 14.10 ЮВ 2 н/о н/о +14.8 +4.5 50 +15 +15 1023.4 989.8
21 14.10 ЮВ 2 н/о н/о +13.3 +4.7 56 +13 +13 1024.1 990.3
22 14.10 ЮВ 1 н/о н/о +13.3 +3.4 51 +14 +14 1023.8 990.0
23 14.10 ЮВ 1 н/о н/о +12.0 +3.5 56 +12 +12 1023.9 989.9
00 15.10 ЮВ 1 н/о н/о +11.7 +2.4 53 +12 +12 1024.0 990.0
02 15.10 ЮВ 2 н/о н/о +11.8 +3.1 55 +11 +11 1024.1 990.1
01 15.10 штиль 0 н/о н/о +7.7 +2.0 67 +7 +7 1024.7 990.2
03 15.10 ЮВ 2 н/о н/о +11.9 +2.9 54 +11 +11 1024.0 990.0
04 15.10 ЮВ 2 н/о н/о +11.5 +3.3 57 +11 +11 1023.9 989.9
05 15.10 ЮВ 2 н/о н/о +11.6 +3.4 57 +11 +11 1023.7 989.7
06 15.10 ЮВ 2 н/о н/о +11.7 +3.5 57 +11 +11 1023.7 989.7 +7.7
08 15.10 ЮВ 2
{8}
н/о н/о +13.7 +4.0 52 +13 +13 1024.1 990.3
07 15.10 ЮВ 2 н/о н/о +12.8 +3.7 54 +12 +12 1024.1 990.2
09 15.10 ЮВ 3 н/о н/о +15.5 +4.8 49 +15 +15 1023.8 990.2
10 15.10 ЮВ 4
{9}
н/о н/о +17.1 +5.1 45 +17 +17 1023.7 990.3
11 15.10 ЮВ 4
{10}
н/о н/о +18.7 +4.8 40 +19 +19 1022.9 989.7
12 15.10 ЮВ 3
{9}
н/о н/о +19.4 +5.5 40 +20 +20 1022.1 989.0
14 15.10 ЮВ 2
{7}
н/о н/о +19.4 +4.7 38 +20 +20 1021.6 988.6
13 15.10 ЮВ 3
{8}
н/о н/о +19.9 +5.2 38 +21 +21 комфорт 1021.7 988.7
15 15.10 ЮВ 2 н/о н/о +18.4 +5.6 43 +19 +19 1021.9 988.7
16 15.10 ЮВ 1 н/о н/о +17.3 +5.3 45 +18 +18 1021.9 988.6
17 15.10 ЮВ 1 н/о н/о +14.7 +4.1 49 +15 +15 1022.2 988.6
18 15.10 В 1 н/о н/о +13.8 +3.8 51 +14 +14 1022.4 988.7 +20.1
20 15.10 ЮВ 1 н/о н/о +14.4 +2.6 45 +15 +15 1022.6 989.0
19 15.10 В 1 н/о н/о +13.9 +2.8 47 +14 +14 1022.6 988.9
21 15.10 штиль 0 н/о н/о +10.8 +3.4 60 +10 +10 1023.3 989.2
22 15.10 В 1 н/о н/о +11.6 +2.9 55 +12 +12 1023.1 989.1
23 15.10 штиль 0 н/о н/о +8.6 +4.2 74 +8 +8 1023.4 989.0
00 16.10 штиль 0 н/о н/о +7.7 +3.6 75 +7 +7 1023.6 989.1
02 16.10 штиль 0 н/о н/о +7.5 +3.0 73 +7 +7 1023.1 988.6
01 16.10 штиль 0 н/о н/о +7.0 +2.7 74 +6 +6 1023.4 988.9
03 16.10 С 1 н/о н/о +8.1 +3.2 71 +8 +8 1023.0 988.6
04 16.10 СЗ 1 н/о н/о +6.7 +3.3 79 +6 +6 1023.2 988.6
05 16.10 штиль 0 н/о н/о +6.3 +2.6 77 +6 +6 1023.3 988.7
06 16.10 штиль 0 н/о н/о +7.1 +3.9 80 +6 +6 1023.4 988.9 +6.0
08 16.10 СВ 1 н/о н/о +11.2 +5.1 66 +11 +11 1023.7 989.6
07 16.10 С 1 н/о н/о +10.0 +5.2 72 +10 +10 1023.5 989.3
09 16.10 В 1 н/о н/о +13.3 +5.9 61 +14 +14 1023.5 989.7
10 16.10 В 1 н/о н/о +14.2 +6.1 58 +15 +15 1023.6 989.9
11 16.10 ЮВ 1 н/о н/о +15.3 +6.1 54 +16 +16 1023.4 989.8
12 16.10 штиль 0 н/о н/о +16.3 +6.2 51 +16 +16 1023.0 989.6
14 16.10 ЮВ 1 н/о н/о +17.0 +6.5 50 +18 +18 1022.4 989.1
13 16.10 В 1 н/о н/о +17.1 +6.3 49 +18 +18 1022.6 989.3
15 16.10 Ю 1 н/о н/о +16.9 +6.7 51 +18 +18 1022.5 989.1
16 16.10 штиль 0 н/о н/о +15.2 +6.7 57 +15 +15 1022.3 988.8
17 16.10 штиль 0 н/о н/о +13.1 +7.3 68 +13 +13 1023.0 989.2
18 16.10 штиль 0 н/о н/о +12.9 +6.3 64 +13 +13 1022.9 989.1 +17.2
20 16.10 штиль 0 н/о н/о +12.3 +7.8 74 +12 +12 1023.2 989.3
19 16.10 штиль 0 н/о н/о +13.2 +7.2 67 +13 +13 1023.0 989.2
21 16.10 С 1 н/о н/о +12.0 +7.5 74 +12 +12 1023.2 989.3
22 16.10 штиль 0 н/о н/о +13.0 +7.0 67 +13 +13 1022.9 989.1
23 16.10 штиль 0 н/о н/о +11.9 +7.4 74 +11 +11 1022.9 989.0
00 17.10 штиль 0 н/о н/о +11.9 +6.8 71 +11 +11 1022.7 988.8
02 17.10 штиль 0 н/о н/о +11.3 +6.8 74 +11 +11 1022.3 988.3
01 17.10 штиль 0 н/о н/о +9.3 +7.1 86 +9 +9 1023.1 988.8
03 17.10 штиль 0 н/о н/о +11.1 +7.4 78 +11 +11 1022.3 988.3
04 17.10 С 1 н/о н/о +10.3 +7.4 82 +10 +10 1022.4 988.3
05 17.10 штиль 0 н/о н/о +9.6 +6.7 82 +9 +9 1022.6 988.4
06 17.10 С 1 н/о н/о +9.3 +6.6 83 +9 +9 1023.0 988.7 +8.8
08 17.10 СВ 2 н/о н/о +12.6 +6.4 66 +12 +12 1022.9 989.0
07 17.10 СВ 1 н/о н/о +11.1 +7.6 79 +11 +11 1022.8 988.8
09 17.10 С 1 н/о н/о +13.5 +7.3 66 +14 +14 1022.8 989.0
10 17.10 СВ 1 н/о н/о +16.0 +8.2 60 +17 +17 1022.5 989.0
11 17.10 СВ 1 н/о н/о +17.7 +8.6 55 +19 +19 1021.6 988.4
12 17.10 В 1 н/о н/о +19.8 +7.5 45 +22 +22 комфорт 1020.8 987.8
14 17.10 штиль 0 н/о н/о +19.7 +8.4 48 +20 +20 1020.2 987.2
13 17.10 СВ 1 н/о н/о +20.0 +7.7 45 +22 +22 комфорт 1020.4 987.5
15 17.10 штиль 0 н/о н/о +19.0 +8.9 52 +20 +20 1020.1 987.1
16 17.10 штиль 0 н/о н/о +17.9 +7.3 50 +18 +18 1020.1 986.9
17 17.10 штиль 0 н/о н/о +14.3 +7.1 62 +14 +14 1020.6 987.0
18 17.10 В 1 н/о н/о +12.9 +6.0 63 +13 +13 1020.8 987.0 +20.6
20 17.10 С 1 н/о н/о +12.0 +5.4 64 +12 +12 1021.3 987.4
19 17.10 С 1 н/о н/о +13.2 +5.1 58 +14 +14 1020.8 987.1
21 17.10 штиль 0 н/о н/о +9.9 +5.3 73 +9 +9 1021.5 987.4
22 17.10 штиль 0 н/о н/о +10.5 +5.9 73 +10 +10 1021.4 987.3
23 17.10 штиль 0 н/о н/о +10.1 +5.9 75 +10 +10 1021.2 987.1
00 18.10 С 1 н/о н/о +11.4 +5.7 68 +11 +11 1020.9 987.0

 

Местоположение метеостанции Veszprem (Венгрия): широта 47.07 долгота 17.83 высота над уровнем моря 281 м.

В архиве по умолчанию представлена погода в Veszprem за последнюю неделю. Архивные данные за месяц целиком и за предыдущие месяцы, начиная с января 2011 года, Вы можете получить, выбрав интересующий диапазон дат из раскрывающегося списка и нажав кнопку "Ввод!".


*Определитесь, кто Вы:
робот инопланетянин человек

Внимание! Время в таблицах - всемирное. Для получения местного времени необходимо прибавить поправку, которая в Veszprem равна 1 ч.

Смотрите также архив погоды в соседних городах и на ближайших метеорологических станциях:

Погода в Siofok (Венгрия) (24 км)
Погода в Agard (Венгрия) (61 км)
Погода в Sarmellek (Венгрия) (66 км)
Погода в Gyor (Венгрия) (73 км)
Погода в Tata (Венгрия) (74 км)
Погода в Kaposvar (Венгрия) (77 км)
Погода в Zalaegerszeg (Венгрия) (81 км)
Погода в Hurbanovo (Словакия) (93 км)
Погода в Szombathely (Венгрия) (93 км)
Погода в Paks (Венгрия) (95 км)

Пояснения к столбцам:

Ветер - указаны скорость ветра в м/с - средняя за 10 мин, порывы в срок и между сроками (в фигурных скобках) и направление, откуда дует ветер: С - северный, СВ - северо-восточный, В - восточный, ЮВ - юго-восточный, Ю - южный, ЮЗ - юго-западный, З - западный, СЗ - северо-западный.
Видимость - горизонтальная дальность видимости в метрах или километрах. При видимости от 1 до 10 км при отсутствии осадков обычно наблюдается дымка, при ухудшении видимости до 1 км и менее - туман. В сухую погоду видимость может ухудшаться дымом, пылью или мглою.
Явления - указаны атмосферные явления, наблюдавшиеся в срок или в последний час перед сроком; фигурными скобками обозначены явления, наблюдавшиеся между сроками (за 1-3 часа до срока); квадратными скобками обозначены град или гололедные отложения с указанием их диаметра в мм.
Облачность - указаны через наклонную черту общая и нижняя облачность в баллах и высота нижней границы облаков в метрах; квадратными скобками обозначены формы облаков: Ci - перистые, Cs - перисто-слоистые, Cc - перисто-кучевые, Ac - высококучевые, As - высокослоистые, Sc - слоисто-кучевые, Ns - слоисто-дождевые, Cu - кучевые, Cb - кучево-дождевые. Подробнее классификацию облаков см. в Атласе облаков (PDF).
T - Температура воздуха - температура, измеренная на высоте 2 м над землей.
Td - Температура точки росы - температура, при понижении до которой содержащийся в воздухе водяной пар достигнет насыщения.
f - Относительная влажность воздуха - влажноcть воздуха, измеренная на высоте 2 м над землей.
Te - Эффективная температура - температура, которую ощущает одетый по сезону человек в тени. Характеристика душности погоды. При расчете учитывается влияние влажности воздуха и скорости ветра на теплоощущения человека.
Tes - Эффективная температура на солнце - температура, которую ощущает человек, с поправкой на солнечный нагрев. Характеристика знойности погоды. Зависит от высоты солнца над горизонтом, облачности и скорости ветра. Ночью, в пасмурную погоду, а также при ветре 12 м/с и более поправка равна нулю.
P - Атмосферное давление - приведенное к уровню моря атмосферное давление.
Po - Атмосферное давление - измеренное на уровне метеостанции атмосферное давление.
Tmin - Минимальная температура - минимум температуры воздуха на высоте 2 м над землей.
Tmax - Максимальная температура - максимум температуры воздуха на высоте 2 м над землей.
R - Количество осадков - Количество выпавших осадков за период времени, мм. При наведении курсора мыши на число - период времени, за который выпало указанное количество осадков.
R24 - Количество осадков - Количество выпавших осадков за 24 часа, мм.
S - Снежный покров - Высота снежного покрова, см. При наведении курсора мыши на число - состояние снежного покрова и степень покрытия местности в баллах.